Race Results for
NMBS #8-Durango
Durango, CO
(Event Information)
This is a non-competitive event
Cross Country on 08/27/2004

Note: Ranking points are NOT upgrade points. An explanation of ranking points can be found here.


Men - Cat 1/2/3 - Senior

 Place NameCity, StateTime USAC #BibTeam
1 Marc Gullickson   Colorado Springs, CO1:05:48.02 14411  1020 REDLINE
2 David Labarr   Fort Collins, CO1:11:03.18 20065  701 JENSEN STE
3 Andrew Hawkes   Colorado Springs, CO1:17:22.94 129305  1027 SMBA
4 SCOTT BOBO   1:18:20.00  1009 
5 John Swanguen   San Diego, CA1:20:32.21 34733  1030 COLLEGE CY

Men - U23 - 1-23

 Place NameCity, StateTime USAC #BibTeam
1 Sam Jurekovic   Colorado Springs, CO2:07:53.89 189561  103 SPECIALIZED
2 Spencer Paxson   Bellingham, WA2:11:11.80 152029  69 DISCO VELO/GIANT/HAYES
3 Eric Jellum   Indian Hills, CO2:28:47.75 192996  68 FORD/GIANT
DNF Ryan Gracey   Jacksonville , CADNF 198816  71 TEAM OLIVER
DNF David Binker   Tucson, AZDNS 166097  63 KENDA

Men - Pro

 Place NameCity, StateTime USAC #BibTeam
1 GEOFF KABUSH   1:54:23.46  MAXXIS
2 Adam Craig   Bend, OR1:55:02.08 94510  10 GIANT/PEARL IZUMI
3 Ryan Trebon   Bend, OR1:55:25.93 136658  36 KONA/CLARKS/LESGETS
4 CESAR GRAJALES   1:56:16.65  85 MAXXIS
5 Brian Smith   Gunnison, CO1:56:41.92 33334  92 TREK/ROCKY MTN REGION
6 Jay Henry   Avon, CO1:57:00.54 15853  12 SPECIALIZED USA
7 CHRIS SHEPPARD   1:58:03.08  HARO-ADIDAS
8 Travis Brown   Durango, CO1:58:32.29 5171  TREK/VOLKSWAGEN
9 Eric Jones   Salt Lake City, UT1:58:33.79 18172  14 BIOGEN-IDEC
10 Jeremiah Bishop   Harrisonburg, VA1:58:38.64 3771  TREK/VW
11 Edmund (Ned) Overend   Durango, CO1:58:48.76 26957  100 
12 Matt Shriver   Durango, CO1:59:54.87 110703  25 3D RACING/EASTON
13 Ariel Lindsley   Aptos, CA2:00:06.42 134618  55 MAVERICK/KLIEN
14 PETER WEDGE   2:01:20.60  13 KONA/CLARKS/LESGETS MTB
15 Alan Obye   Boulder, CO2:01:23.49 117394  19 U23 NATIONAL TEAM
16 BRENT MILLER   2:02:06.74  24 INTENSE/KENDA
17 Barry Wicks   Corvallis, OR2:02:12.54 134223  20 KONA-CLARKS/LESGETS
18 Cameron Brenneman   Santa Fe, NM2:02:18.96 4755  50 GIANT/MANITOU
19 Alex Hagman   Fort Collins, CO2:02:49.82 173228  87 FORT FRAMES/SMITH
20 KRIS SNEDDON   2:02:53.92  104 KONA/CLARKS/LESGETS
21 Charles Pendry   Raleigh, NC2:02:57.29 106096  41 BTD RACING
22 Frank Mapel   Durango, CO2:03:21.33 22429  18 SPECILIZED USA
23 Matthew Unger   Idledale, CO2:03:37.05 133704  93 TEAM DEAN
24 James Mortenson   Eagle, CO2:03:44.78 136357  17 SPECIALIZED
24 TRENT LOWE   2:03:56.38  60 YETI
25 Cody Peterson   Bend, OR2:04:02.12 97506  29 3 D RACING EASTON
26 Samuel Schultz   Missoula, MT2:04:42.09 164788  95 U23 NATIONAL TEAM
27 Andy Lee   Lakeway, TX2:04:59.01 104097  43 KING OF THE ROCKIES/GRAND SPORTS
28 Brian Laiho   Boulder, CO2:05:16.30 114793  76 DEAN BICYCLES
29 Cale Redpath   Durango, CO2:05:38.31 29358  89 505 TREK/HONEY STINGER
30 Michael Lee   Mission Viejo, CA2:05:59.39 42231  48 TREK/VW/JBL
31 Mike West   Boulder, CO2:06:34.40 37786  86 GIANT/OSO ENERGY/ CIBER
32 Brent Bookwalter   Asheville, NC2:07:18.84 171977  79 BALANCE BAR/ DEVO
33 Jason Jablonski   Wenatchee, WA2:07:52.42 98835  61 ARLBERG SPORTS/GOLDS GYM
34 Nat Ross   Golden, CO2:08:23.12 152119  64 SUBARU- GARY FISHER
35 Eric Ransom   Richmond, VA2:09:43.30 150928  57 TAMARACK RESORT
36 Jesse Rients   Shakopee, MN2:10:25.41 147524  70 NATURE VALLEYPENN CYCLE
37 Jason Sager   Ogden, UT2:11:02.47 31059  75 HOTEL SAN JOSE/CANNONDALE
38 Kevin Day   Farmington, UT2:12:16.16 108971  62 STEIN ERIKSEN SPORT
39 Robert Scott   Wappingers Falls , NY2:12:40.34 32000  90 CANNONDALE
40 Grant Berry   Durango, CO2:13:12.40 148636  80 TEAM DEAN
41 Ross Schnell   Grand Jct, CO2:13:22.31 99965  105 TOKYO JOES
42 David Timmons   Flagstaff, AZ2:13:26.76 153514  66 RPM/YETI
43 Carl Swenson   Park City, UT2:13:57.78 34803  RLX RALPH LAUREN
44 Douglas Ryden   Colorado Springs, CO2:14:47.01 106147  102 PRO CYCLING
45 Troy Barry   Falmouth, ME2:14:54.68 82836  47 JHMR/MARMOT
46 Tristan Schouten   Plymouth, WI2:14:55.62 145071  65 PCW CYCLING
47 Micah Joseph   Tyler, TX2:15:25.88 169692  106 TEAM DEAN
48 Nick Gould   Hollis Maine2:17:04.58 139267  98 SANTA CRUZ/HONEY STINGER
49 Brad VanOrden   Prescott, AZ2:17:16.57 140292  51 
50 Bart Gillespie   Salt Lake City, UT2:17:42.05 13273  81 BIOGEN-IDEC
51 Derek Wilkerson   Dallas 2:19:22.47 52173  67 SPECIALIZED HILLENBRAND
52 Nathan (Nate) Ringquist   Westminster, MA2:19:23.93 140698  101 ROCK SHOX
53 Dwight (Whitey) DeBroux   Boulder, CO2:19:35.56 191625  77 OSO/GIANT/CIBER
54 Jesse Swift   Golden, CO2:19:58.32 100646  73 DEAN BICYCLES
55 YOSHITO TSUJI   2:23:21.24  54 ROCKY MOUNTAIN
56 Joseph Thompson   Durango, CO2:24:50.28 185428  72 BALANCE BAR/ DEVO
57 William Holmes   Colorado Springs, CO2:25:24.23 105448  56 INTENSE CYCLES
58 Bryan Fawley   Denton, TX2:25:54.08 198394  99 BONJOVI/KENDA
59 Ethan Johnson   Durango, CO2:27:33.48 152494  88 BALANCE BAR/DEVO
60 Robert Cagle   Marietta, GA2:35:36.01 137285  82 
DNF John Devine   Dixon, ILDNF 166980  96 U23 NATIONAL TEAM
DNF Adam Snyder   Westminster, MADNF 122912  74 BALANCE BAR/DEVO
DNF Patrick Bush   San Anselmo, CADNF 164281  78 CLIF BAR/TREK
DNF TAKAHIRO OGASAWARA   DNF  52 GARY FISHER JAPAN
DNF Brandon Ott   Collegeville, PADNF 151613  91 TAILWIND
DNF Joshua Powers   Phoenix, AZDNF 91975  94 SPEEDBIKES
DNF Michael Janelle   Avon, CODNF 17659  32 TOKYO JOES/GARY FISHER
DNF Michael McClure   Ketchum, IDDNF 120469  59 BALANCE BAR/ TEAM DEVO
DNF Amon Pease   Point Arena, CADNF 82723  58 INTENSE
DNF Andy Schultz   Missoula, MTDNF 172534  84 

Men - SM

 Place NameCity, StateTime USAC #BibTeam
1 Nick Martin   Boulder, CO2:07:20.51 140177  249 TREK-VW
2 Tim Olson   Chico, CA2:07:28.59 153947  254 TREK/VW/JB
3 J Clark   Colorado Springs, CO2:08:13.76 132523  224 STEIN ERIK
4 Ryan Lynch   Boulder, CO2:08:45.41 164962  234 GIANT/CIBE
5 Thomas Spannring   Longmont, CO2:08:48.18 189584  209 EUCLID TIM
6 Jason Donald   Brighton, CO2:09:19.51 200350  240 CIBER/OSO
7 Sean Donovan   Foothill Ranch, CA2:09:32.98 186481  235 AFP/VELOSP
8 Miles Venzara   Durango, CO2:10:56.33 138725  237 505 TREK H
9 Richard Thurman   Chico, CA2:11:24.93 35561  201 SOULCRAFT
10 Ali Goulet   Salt Lake City, UT2:11:35.93 13796  211 STEIN ERIK
11 Benjamin Thompson   Bend, OR2:11:43.90 189912  207 RAGNAROK
12 Lance Runyan   Mesa, AZ2:11:44.64 201139  213 STEIN ERIC
13 Spencer Powlison   Boulder, CO2:12:02.68 161897  202 BLISS RACI
14 Todd Johnson   Teton Village, WY2:12:16.50 18060  222 JACKSON HO
15 Bear Perrin   Grants Pass, OR2:13:05.32 104126  210 PISTIS/ORB
16 Blake Zumbrunnen   Bountiful, UT2:13:35.89 168946  206 REVOLUTION
17 Fred (Robbie) Robinette   Park City, UT2:14:12.29 96459  218 TEAM HOTEL
18 MICHAEL SCANLON   2:14:31.67  214 HUB OF ASP
19 Tane Hunter   Las Cruces, NM2:15:12.36 130676  252 FORT LEWIS
20 David Harris   St George, UT2:15:24.44 15187  208 505 TREK/
21 Brent Winebarger   Colorado Springs, CO2:15:28.58 132038  215 505 TREK H
22 Collin Becker   Colorado Springs Co2:15:28.86 179626  216 GIANT/CIBE
23 GREG LEWIS   2:15:32.52  239 505 TREK/H
24 Leonardo Sandoval   Clearwater, FL2:16:19.16 107620  217 HELENS
25 Jay Noonan   Whitefish, MT2:17:03.31 151146  253 ROCKY MT/F
26 Paul Bennett   Drake, CO2:18:01.02 122739  243 TOKYO JOES
27 BRONSON DUENAS   2:18:30.65  244 
28 Ryan Artale   Boulder, CO2:18:49.93 148564  236 GIANT/OSO
29 Randall McVean   Middleton, WI2:18:59.53 102673  242 IONIC
30 Brandon Firth   Heber, UT2:19:28.65 11665  205 STEIN SPOR
31 Joel Mischke   Basalt, CO2:21:05.95 77727  219 AJAX FACTO
32 Benjamin Duke   Boulder, CO2:21:42.53 170634  248 NICK MARTI
33 James Upshaw   Durango, CO2:23:18.83 123287  774 3D RACING
34 Forrest Smith   Waukesha, WI2:25:31.61 33131  238 
35 Justin Maka   Albuquerque, NM2:27:15.39 164982  220 DEAN TITAN
36 Michael Raney   Santa Fe, NM2:27:47.61 175669  250 BLUESTONE
37 Darren Lightfield   Boise, ID2:27:56.20 197708  221 TAMARACK/G
38 Donavan Davis   Sedona, AZ2:31:03.33 8757  223 VELO DEL N
DNF Hal Clark   Lafayette, CODNF 175767  246 TOKYO JOES
DNF Ryan Barthel   Durango, CODNF 2770  225 
DNF Dustin Sweet   Reno, NVDNF 34787  241 TEAM EASTY
DNF Charles Knoll   DenverDNF 19476  212 NO-HAIR.CO
DNF Chan Head   Salt Lake City, UTDNF 140537  204 GUTHRIE BI
DNF Chris Kuhl   Dillsburg, PADNF 175354  203 BUSHEYS CY
DNF Tate Graves   Denver, CODNF 114219  247 TEAM DEAN
DNF Christopher Hopwood   Fairfield, CTDNF 164804  245 GIANT/CIBE
DNF Stephen Sontag   Hanover, NHDNF 174071  251 RED ROCK R

Men - EX - Junior - 1-18

 Place NameCity, StateTime USAC #BibTeam
1 Garrett Gibson   San Francisco, CA2:11:40.66 144160  915 DEVO/BALAN
2 TAD ELLIOT   2:14:31.25  725 
3 Chris Spencer   San Francisco, CA2:14:56.21 190061  410 ROARING MO
4 Ben Pifer   Kingwood, TX2:15:13.80 175635  681 UNITED YOU
5 Kevin Rice   Flagstaff, AZ2:15:27.05 201159  677 Y-RIDERS
6 Andrew Juiliano   Santa Clarita, CA2:18:47.74 202561  519 GALENA LOD
7 Mitchell Peterson   Salt Lake City, UT2:19:25.26 192669  420 BALANCE BA
8 Gian Dalle   Roslyn Wa2:20:12.30 210989  990 WENATCHEE
9 Noah Singer   Little Rock, AR2:20:29.70 171313  983 DOUBLEBEES
10 Ian Burnett   Durango, CO2:20:47.84 191725  533 DURANGO CY
11 Sam Carlson   Bozeman, MT2:21:01.57 178447  1031 SMBA
12 Colin Cares   Boulder, CO2:21:49.92 216528  637 SMBA
13 Austin Carroll   Orange, CA2:26:27.40 192670  455 DEVO BALAN
14 Marcus Torres   Cedar Park, TX2:26:42.46 158825  506 RITCHEY NO
15 Carson Worts   Banner Elk, NC2:26:48.95 191016  650 RITCHEYNOV
16 roger leclaire   Boulder, CO2:28:03.26 213870  699 
17 William Brown   Oro Valley, AZ2:28:35.60 194984  632 DEVO/BALAN
18 Tyler Scott   Park City, UT2:29:07.14 173528  669 YOUNG RIDE
19 Eric Barlevav   Encino, CA2:29:57.07 189665  738 TITUS
20 McConnell Franklin   Taos2:31:31.23 215111  969 TAOS CYCLI
21 Chris Peterson   Sandy Ut2:31:46.20 202966  421 REVOLUTION
22 Nickolas Wieber   Cave Creek, AZ2:33:28.82 167863  504 RITCHEY/NO
23 JOSEPH SCHNEIDER   2:34:37.86  670 
24 Stephen Ettinger   Bozeman, MT2:36:34.80 189074  521 WENATCHEE
25 Dustin Wanstrath   Durango, CO2:36:37.12 190121  654 HASSLE FRE
26 John Purvis   Parthenon, AR2:38:28.14 200977  772 NWA BUSHME
27 Andrew Wait   Golden, CO2:39:31.94 182250  583 DURANGO CY
28 Dustin Wynne   Park City, UT2:40:10.76 162324  649 
29 Aaron Thurman-Wille   Flagstaff, AZ2:41:05.14 196296  472 NOVA
30 ALEX HOWARD   2:43:10.04  1037 
31 Paul Davis   Midvale, UT2:43:45.29 196139  973 CONTES/DIR
32 Nick Certeza   Eagle, CO2:45:54.27 191248  731 CENTURYTEL
33 Art Nelsen   Boulder, CO2:49:39.38 211465  686 
DNF Trevor Downing   Durango, CODNF 161859  523 RITCHEY NO
DNF Nathan Sowle   Reno, NVDNF 198492  555 RENO WHEEL
DNF Ryan Buerman   Oceanside, CADNF 193513  981 YOUTH CYCL
DNF Tyler Henderson   Denver, CODNF 194080  765 TEAM DEAN
DNF Sam Jurekovic   Colorado Springs, CODNF 189561  883 SPECIALIZE
DNF Tristan Uhl   Austin, TXDNF 168160  758 RITCHEY NO
DNF Braden Bingham   Longmont, CODNF 163524  460 CENTRUYTEL

Men - EX - Senior - 19-24

 Place NameCity, StateTime USAC #BibTeam
1 Ty Hansen   Sandy, UT2:17:37.49 14999  492 NEW MOON M
2 Jimmy Lawrence   Windham, NY2:19:36.37 193233  804 WINDHAM MT
3 Robert Herber   Murrieta, CA2:21:18.52 153464  713 IE BIKES/S
4 John Stevens   Norman, OK2:23:19.33 172319  1035 
5 Caleb Thompson   Durango, CO2:23:53.30 173357  839 PCW CYCLIN
6 John Hayes   Cleveland, TN2:24:13.80 176666  627 KRYSTAL
7 Mark Lattin   Elko, NV2:31:57.09 163708  987 
8 Peter Hudnut   Ft Collins, CO2:32:25.41 147099  594 COLORADO C
9 Brandon Christianson   Houston, TX3:00:51.54 191883  988 SOLAR ECLI
DNF Rick Wetherald   Logan, UTDNF 188971  587 FORT LEWIS
DNF NICHOLAS MARTINEZ   DNF  689 SPORTZ OUT
DNF Justin Lindine   North Ogden, UTDNF 205717  803 WINDHAM MT

Men - EX - Senior - 25-29

 Place NameCity, StateTime USAC #BibTeam
1 Daniel Murray   Telluride, CO2:17:50.28 187114  608 PARAGON SK
2 JAMES BATTY   2:18:18.91  1095 JANSPORT
3 Toby Tsosie   El Paso, TX2:20:15.35 127320  560 
4 Jake Lueckel   Lakewood, CO2:22:02.49 76599  543 NO-HAIR.CO
5 Nathan Smith   Durango, CO2:26:38.47 202203  572 
6 Chad Cheeney   Durango, CO2:33:39.40 104313  525 DWC
7 Jeff Maier   Evergreen, CO2:36:27.54 80468  746 SANTA CRUZ
8 Mario Medina   Sussex, WI2:38:30.81 181488  605 TEAM MEDIN
DNF Alan Simons   Denver, CODNF 172439  570 BIKESOURCE

Men - EX - Master - 30-34

 Place NameCity, StateTime USAC #BibTeam
1 Len Zanni   Steamboat Springs, CO2:14:28.65 39400  1021 HONEYSTING
2 Ophir Sefiha   Grand Junction Co2:16:53.90 40420  1003 RED ROCK R
3 JUSTIN HANKINS   2:17:28.87  1094 
4 Chad Kittles   Arvada, CO2:19:31.76 80263  598 YETI/DENVE
5 Scott Simmons   Durango, CO2:21:06.08 32724  666 
6 Chad Wassmer   Park City Ut2:22:15.17 180866  751 COLE SPORT
7 Ryan McFarling   Lafayette, CO2:22:47.98 215008  690 MOUNTAIN P
8 Jake Ziemba   Littleton, CO2:23:29.45 213734  564 WINDRAMS E
9 Randy Flores   Santa Fe, NM2:24:43.99 11878  721 NM BIKE N
10 Jerry Cherra   Duluth, MN2:28:22.75 149677  454 ALTO VELO/
11 Derek Eilers   Denver, CO2:29:03.18 137502  619 ADVENTURE
12 David Wilson   El Paso, TX2:29:32.23 38515  588 
13 Sampson Bruesewitz   Littleton, CO2:30:04.55 149605  633 TEAM RED H
14 Elliott Larson   Aspen, CO2:30:45.13 127531  700 AJAX FACTO
15 Kevin Holliday   Park City, UT2:31:10.63 121402  966 JANS
16 ROB HOPKINS   2:33:40.58  1066 GUTHRIE BI
17 Ron Chavez   Commerce City, CO2:35:29.81 88964  730 NO-HAIR.CO
18 Tom Torrance   Boulder, CO2:38:08.72 173912  660 HELLRIDERS
19 Foye Troute   Hixson, TN2:42:09.36 35970  918 SHIMANO
20 Tim Woodruff   Anna, TX2:47:57.08 168504  965 CHAMPIONS
21 Sean Cassily   Arroyo Seco, NM2:58:29.15 174261  640 TAOS-COLAV
DNF Jon Tanklage   Whittier, CADNF 185516  507 TEAM KAREE
DNF Chris Hamilton   Dallas, TXDNF 189253  493 PACC

Men - EX - Master - 35-39

 Place NameCity, StateTime USAC #BibTeam
1 Kirk Buckman   Santa Rosa, CA2:16:21.78 134031  760 REDWOOD EM
2 Kurt Masterson   Durango, CO2:17:47.18 22865  809 
3 GAIGE SIPPY   2:19:22.79  766 
4 Volker Orgeldinger   Denver, CO2:20:51.63 149150  761 TEAM REDHO
5 Kevin Langan   Denver, CO2:22:13.37 216476  970 REDHOOK/TU
6 Lee Roufa   Telluride, CO2:24:50.30 30709  673 MOOTS
7 Robert Saffell   Salt Lake City, UT2:29:31.00 190924  550 REVOLUTION
8 Christopher Weber   Littleton, CO2:30:19.17 131687  586 ADVENTURE
9 Timothy Barnes   Boulder, CO2:32:58.72 96071  629 TEAM DEAN
10 Christopher Latshaw   Durango, CO2:40:53.19 170947  600 DURANGO WH
11 Sean Peck   Durango, CO2:41:54.70 135664  1011 3D RACING
12 Carlos Vulgamott   Lakewood, CO2:43:49.38 129128  657 NO-HAIR.CO
13 James Nyysti   Prescott, AZ3:08:01.50 166149  546 TM EXCELLE
14 Mikel Aucutt   Oxnard, CA3:08:03.09 114942  529 AMGEN CYCL
15 John Larson   Mckinney, TX3:16:59.29 194312  801 PLANO ATHL
DNF Wayne Sicz   Polson, MTDNF 80182  476 GRAVITY DR
DNF Jeffrey Sellers   Aspen, CODNF 32147  571 

Men - EX - Master - 40-44

 Place NameCity, StateTime USAC #BibTeam
1 Chris De Frates   Crested Butte, CO2:16:21.56 156114  727 DEAN GRASS
2 Craig Hofer   Littleton, CO2:18:34.91 47071  1010 TEAM CANYO
3 Steven Meyer   Breckenridge, CO2:18:41.05 83402  515 ELLSWORTH/
4 Joseph Burtoni   Durango, CO2:25:07.63 5632  636 DURANGO WH
5 Andrew Ferguson   Durango, CO2:25:54.49 172968  1002 TREK 505 H
6 Peter Tempest   Gallup, NM2:30:50.32 102793  406 
7 Mark Gouge   Littleton, CO2:32:55.64 115008  1064 PIKES PEAK
8 Stephen Thaxton   Sissonville, WV2:36:46.36 35278  405 TEAM WV BO
9 Jesse Ferrer   Star, ID2:58:15.79 165832  446 
10 Chris Rickey   Yukon, OK2:59:02.64 179082  924 
DNF Todd Mills   Mableton, GADNF 84369  1058 REALITY BI
DNF Christopher Branson   Glendale, AZDNF 155531  456 ADVENTURE

Men - EX - Master - 45-49

 Place NameCity, StateTime USAC #BibTeam
1 Todd Henneman   Park City, UT2:15:38.72 15823  593 JANS
2 Robert Anderson   Mill Valley, CA2:20:52.81 1688  530 NOVADIGM/F
3 John Gilbert   Durango, CO2:26:57.08 13229  791 HASSLE FRE
4 Russell Asleson   Colorado Springs, CO2:31:28.13 2017  461 MAD DOG ME
5 Pete Masiel   Silver City, NM3:01:47.46 174198  429 IE BIKES/S
DNF Keith Sanders   Winter Park, CODNF 31223  412 GRAND SPOR
DNF Robert Koerber   Asheville, NCDNF 97472  436 CANE CREEK

Men - EX - Master - 50-54

 Place NameCity, StateTime USAC #BibTeam
1 Billy Newmyer   Durango, CO1:08:13.89 26011  684 MAVERICK A
2 Ralph Winebarger   Aztec, NM1:09:36.22 138980  589 505-TREK
3 Bryce Miller   Tucson, AZ1:12:04.77 109817  1033 SIERRA HEL
4 Paul Zarubin   Truckee, CA1:12:37.09 196952  402 MT LINCOLN
5 Roger Gillespie   Provo, UT1:16:22.08 13281  625 BIOGEN-IDE
6 Dan Wanstrath   Durango, CO1:17:19.39 211020  656 

Men - EX - Master - 55-99

 Place NameCity, StateTime USAC #BibTeam
1 Ric Dudley   Fort Collins, CO1:14:13.13 10094  756 3D RACING/
2 Robert Blatner   Brentwood, CA1:19:10.95 128181  498 BIKES4LIFE
3 Richard Sederberg   Batesville, AR1:25:43.30 171312  553 PARKSIDE/S
4 Donald Mapel   Durango, CO1:32:36.48 22428  688 DURANGO WH
5 Jurgen Leiser   Colorado Spgs, CO1:34:26.40 20844  431 
6 Tim Hagman   Woody Creek, CO1:44:42.14 211830  1040 
7 Jacques Houot   Carbondale, CO2:04:08.55 16835  979 ASPEN CYCL

Men - SP - Junior - 1-18

 Place NameCity, StateTime USAC #BibTeam
1 Benjamin Kraushaar   Durango, CO1:13:24.97 198737  703 DURANGO WH
2 Dutch Wiehe   Park City, UT1:14:21.10 161913  749 YOUNG RIDE
3 Dylan Stucki   Durango, CO1:15:55.89 192016  663 TOTALLY WI
4 Tres Wilson   Durango, CO1:17:29.13 151528  993 YOUNG RIDE
5 Matthew Beaton   Colorado Springs, CO1:19:03.08 216119  1073 Y RIDERS
6 Austin McKnight   Highlands Ranch, CO1:19:36.39 200014  1121 RMCEF
7 Colin Harris   Niwot, CO1:19:49.55 203381  1075 Y-RIDERS
8 BRENNAN STEGE   1:32:40.08  574 
9 ROGAN BROWN   1:40:55.08  735 
DNF GRADY JAMES   DNF  1015 

Men - SP - Senior - 19-24

 Place NameCity, StateTime USAC #BibTeam
1 MILES MIELKE   1:10:19.10  1096 
2 Connor Shreve   Lafayette, CO1:23:58.50 186234  667 661/MAXXIS
3 Skyler Rail   Independence, KS1:26:32.51 140767  512 
4 DREW EDSALL   1:26:41.53  980 
5 Charlie Neuenschwander   Piedmont, OK1:28:10.90 204061  920 
6 James Voorhies   Fort Collins, CO1:36:41.37 199019  868 
DNF SAM FERANDO   DNF  874 
DNF Chris Paulson   Albuquerque, NMDNF 153649  1036 UNM

Men - SP - Senior - 25-29

 Place NameCity, StateTime USAC #BibTeam
1 Jason Meinke   Choctaw, OK1:16:29.56 203082  925 
2 Robert Aguero   Little Rock, AR1:29:14.90 187781  1023 WHEELS IN

Men - SP - Master - 30-34

 Place NameCity, StateTime USAC #BibTeam
1 QUENTIN MORISETTE   1:10:04.02  427 COPPERCHAS
2 Kent Carlsen   Providence , UT1:11:11.30 169531  1065 LOGAN RACE
3 GAVIN ATKINS   1:12:15.82  1068 MOUNTAIN M
4 ROB LEE   1:14:00.89  1067 SEA LEVEL
5 GABRIEL CARBAJAL   1:14:27.87  997 SOLSCADE R
6 Bradley Newby   Saint George, UT1:15:06.52 195141  481 RED RODE B
7 TERRY GORSUCH   1:16:41.77  718 KOKOPELLI
8 Joshua Cooper   Santee, CA1:22:26.92 199505  859 
9 JUSTIN ELLIOTT   1:24:38.26  896 
10 Linde Smith   Springville, UT1:25:34.34 44274  475 BIOGEN
11 JUSTIN REPATH   1:32:37.80  1028 
12 CHRIS RICHARDSON   1:32:50.04  678 BIKE DOCTO

Men - SP - Master - 35-39

 Place NameCity, StateTime USAC #BibTeam
1 ROBERT GOODING   1:15:56.46  996 
2 Mark Fasczewski   Greensboro, NC1:26:06.14 112145  1087 SUCK CREEK
3 ROBERT MYERS   1:27:27.69  1024 
4 Rocky Rockwell   Durango, CO1:28:59.15 152314  1108 NRC/PEDAL
5 Noel Garcia   Phoenix, AZ1:31:11.70 177810  623 GEARWERKS/
6 Patrick Clements   Corpus Christi, TX1:39:57.64 194475  453 BULLDOG
7 Chuck Bolden   Denver, CO1:40:11.59 194188  1072 SMBA/SMITH
8 Jay McGinnis   Plano, TX1:43:54.85 187731  852 WHEELS N M
9 Keith Newsome   Bakersfield, CA1:47:40.30 79109  423 PLANET X
DNF BRAD GOOD   DNF  440 
DNF TODD BRADY   DNF  982 BIKESOURCE

Men - SP - Master - 40-49

 Place NameCity, StateTime USAC #BibTeam
1 WILLIAM SCALF   1:14:37.40  1059 DURANGO MO
2 PAUL MINARDI   1:17:32.41  1025 
3 Robert Letson   Broomfield, CO1:18:23.48 178769  432 SEVEN
4 MANNY ORTIZ   1:18:36.64  514 SWISS AMER
5 Mark Wille   Flagstaff, AZ1:19:21.37 196295  468 ABSOLUT/SU
6 RODNEY WILSON   1:21:02.15  1114 INDEPENDEN
7 MICHAEL MARTIN   1:22:45.47  776 
8 Alex McLean   Durango, CO1:23:02.10 161366  694 
9 Joe Fabris   Los Gatos, CA1:27:47.99 189959  447 LE VILLAGE
10 Scott Mydock   Glendale, AZ1:29:02.24 106945  424 TEAM EXCEL
11 T Casper   Durango, CO1:31:52.01 172907  732 STORM RACI
12 Rick Lane   Fullerton, CA1:37:17.86 199508  1069 
DNF STEVE WAYMAN   DNF  1006 

Men - SP - Master - 50-99

 Place NameCity, StateTime USAC #BibTeam
1 BRUCE MCKAY   1:28:10.60  603 
2 Robert Williams   Scottsdale, AZ1:33:17.40 125738  465 LANDIS CYC
3 Richard Bagienski   Durango, CO1:37:48.33 176501  501 SNOWATER
4 Jim Simons   Bozeman, MT1:51:22.16 174588  554 STRONG RAC
DNF MEINRAD LECKIE   DNF  434 FIRST SLAT
DNF Eric Storm   Apple Valley, CADNF 82406  473 

Men - BG - Junior - 1-10

 Place NameCity, StateTime USAC #BibTeam
1 GINO PASTORE   0:25:15.05  1029 
2 Ethan Williams   Cottonwood, AZ0:51:09.09 215749  401 MISSING LI

Men - BG - Junior - 11-12

 Place NameCity, StateTime USAC #BibTeam
1 Carsen Ware   St George, UT0:21:24.20 195310  471 BICYCLES U
2 Timmy Williams   Cottonwood, AZ0:24:22.57 204154  404 MISSING LI

Men - BG - Junior - 13-14

 Place NameCity, StateTime USAC #BibTeam
1 Adam Parke   Steamboat Springs, CO0:27:03.76 213492  610 HONEYSTING
2 Brandon Lee   Mission Viejo, CA0:27:16.51 169394  542 TREK/VW/JB
3 Alex Scott   Park City, UT0:32:16.31 175666  668 YOUNG RIDE
4 CHASE ORRICK   0:33:22.62  1019 
5 Colin Wait   Durango, CO0:36:12.19 211213  584 DURANGO DI
6 Jason Throop   Escondido, CA0:41:49.29 184439  578 RITCHEY NO

Men - BG - Junior - 15-16

 Place NameCity, StateTime USAC #BibTeam
1 CHAD WANSTRATH   0:26:14.21  655 

Men - BG - Junior - 17-18

 Place NameCity, StateTime USAC #BibTeam
1 DAMIEN FETERSEN   1:33:35.30  919 
2 KYLE HORN   1:35:10.39  785 

Men - BG - Senior - 19-29

 Place NameCity, StateTime USAC #BibTeam
1 JASON OTT   1:27:41.64  480 
2 BRADFORD PETE-HILL   1:34:11.61  419 
3 Robert Schaeffer   Beverly Hills, CA1:38:33.86 131038  411 WHEEL WORL
4 CHRIS HEPBURN   1:45:25.98  491 
5 Christopher Gibson   Washington, DC1:57:29.95 216712  624 

Men - BG - Master - 35-39

 Place NameCity, StateTime USAC #BibTeam
1 Xavier Rangel   Phoenix, AZ1:37:48.68 157867  413 
2 SCOTT BACHMAN   1:44:44.20  850 WHEELS IN

Men - BG - Master - 40-49

 Place NameCity, StateTime USAC #BibTeam
1 PHILLIP HEIDEN   0:32:20.98  999 
2 Michael Boetker   Highlands Ranch, CO0:37:28.76 149551  630 

Women - U23 - 1-23

 Place NameCity, StateTime USAC #BibTeam
1 HILLARY WRIGHT   2:32:45.94  71 BALANCE BAR/DEVO

Women - Pro - Senior

 Place NameCity, StateTime USAC #BibTeam
1 Shonny Vanlandingham   Captain Cook, HI1:58:13.57 89955  17 LUNA WOMENS MTB TEAM
2 Alison Dunlap   Colorado Springs, CO1:59:51.67 10194  39 LUNA WOMENS MTB TEAM
3 Dara Marks-Marino   Flagstaff, AZ2:00:01.85 144461  FORD CYCLING
4 Gretchen Reeves   Avon, CO2:05:27.18 29423  18 ROCKY MTN / BUSINESS OBJECTS
5 KATERINA HANUSOVA   2:05:36.49  LUNA WOMEN MTB
6 Susan Haywood   Davis, WV2:05:44.50 117585  TREK-VOLKSWAGEN
7 Kelli Emmett   Plymouth Mi2:06:31.48 156146  13 SPECIALIZED HILLENBRAND
8 JENNIFER SMITH   2:07:04.64  15 WV BONJOVI TM
9 Katherine Zambrana   Steamboat Springs, CO2:08:18.08 145788  76 DEAN
10 Willow Koerber   Durango, CO2:08:36.25 77103  RLX RALPH LAUREN
11 CHRISSY REDDEN   2:08:59.48  SUBARU-GARY FISHER
12 Lisa Matlock   Arvada, CO2:09:30.63 122014  25 FORD CYCLING
13 Abigail Hippely   Santa Cruz, CA2:12:42.11 184801  35 KLEIN MAVERICK
14 LEA DAVISON   2:13:28.00  37 TEAM DEVO
15 Georgia Gould   Fort Collins, CO2:13:36.88 183192  32 JENSENSTERN/SMITH
16 Kerry Barnholt   Mountain View, CA2:13:59.11 150226  41 SUBARU-GARY FISHER
17 Tonya Laffey   Altadena, CA2:15:05.84 121249  26 MTBCHICK.COM/CANNONDALE
18 Jennifer Gersbach   Durango, CO2:15:19.44 191239  47 TOKYO JOES
19 Sarah Tescher   Durango, CO2:15:47.99 182273  75 3D & EASTON
20 Zephanie Blasi   Vail, AZ2:16:12.25 156031  59 RENO WHEELMEN/KENDA
21 Nina Baum   Albuquerque, NM2:17:07.48 180986  24 TITUS
22 Sara Bresnick   Arlington, MA2:17:33.94 166426  23 FORD CYCLING
23 Lorien Lightfield   Boise, ID2:20:35.94 98936  52 TAMARACK/GOLDYS
24 Megan Carrington   Denver, CO2:20:59.63 154412  58 RED HOOK/TURIN
25 Susan Fiore   Arroyo Seco, NM2:21:37.80 163471  46 COLAVITA BOLLA-TAOS
26 Alicia Hamilton   Colorado Springs, CO2:21:50.81 175005  55 GIANT/ DARK HORSE
27 NIKI GUDEX   2:22:06.13  68 INTENSE CYCLES/OAKLEY
28 Julie Emmerman   Boulder, CO2:22:28.48 121552  45 EPIC ROOTS/ PEARL IZUMI
29 Robin McGee   Jackson, WY2:22:42.27 172970  30 JACKSON HOLE/MARMOT
30 Heather Svahn   Truckee, CA2:24:15.51 112034  66 THE BACKCOUNTRY
31 Joan Orgeldinger   Denver, CO2:24:29.55 149151  65 REDHOOK/TURIN
32 Cindi Hansen   Sandy, UT2:24:56.93 191679  36 MTBCHICK.COM/CANNONDALE
33 Jennifer Wilson   El Paso, TX2:25:21.76 113826  44 
34 Judith Freeman   Littleton Co2:27:27.23 182719  43 CANNONDALE
35 Shannon Gibson   Durango, CO2:28:29.64 156279  57 CRAZY CAT CYCLERY
36 D Morisette   Brian Head, UT2:29:40.97 161293  31 ELLSWORTH
37 Kristi Lewis   Durango, CO2:31:06.49 21089  53 SUN & SKI SPORTS/HARO
38 Theresa Richardson   Davidsonville, MD2:31:16.09 170227  51 CANNONDALE MTN BIKE TEAM
39 Ashlie Angel   Durango, CO2:32:12.24 189762  60 HASSLE FREE SPORTS/TREK
40 Susan Grandjean   Portland, OR2:34:08.61 116807  56 YIPEE RACING
41 NOEL WEDDLE   2:34:50.69  49 VELO BELLA/VELOJUNCTION.COM
42 Sarah (Sally) Warner   Stow, MA2:35:18.63 60346  64 BIOGEN-IDEC
43 Hana Fiserova   Ft Collins, CO2:37:08.90 202507  69 MTBCHICK.COM/CANNONDALE
44 Laura Anderson   Crested Butte, CO2:38:26.81 165743  34 AMGEN
45 Rebecca Gross   Golden, CO2:42:08.39 176014  33 MATHIS BROTHERS/SHARPER IMAGE
46 Shari Hausbeck   Colorado Springs, CO2:42:43.65 100434  54 ROCK SHOX/PRO CYCLING
47 Lisa Peck   Santa Cruz, CA2:43:06.49 27559  63 BIOGEN-IDEC
48 Rebecca Cleveland   Green Bay, WI2:44:56.59 100571  40 THE BIKE HUB
49 Susan Juedes   Madison, WI2:54:33.01 169773  73 TEAM BIKE HUB
50 STEFFI PENCO   2:55:02.45  74 COLNAGO/NORTHWAVE
51 Suzanne Aguero   Little Rock, AR3:00:45.00 187776  67 WHEELS IN MOTION
DNF Katherine Sherwin   Heber City, UTDNF 173633  29 CANNONDALE
DNF KRISTIN JOHNSON   DNF  70 FORD BASIS
DNF Kimberly Flynn   Greensboro, NCDNF 122752  72 DEFEET
DNF Heidi Faller   Bend, ORDNF 178986  61 TM DEAN
DNF Leslie Gilmore   Flagstaff, AZDNS 165486  62 SOULCRAFT
DNF Becca Blay   Boulder, CODNF 174258  42 TEAM DEAN
DNF Alexandra Robinette   Austin, TXDNF 149261  50 TEAM HOTEL SAN JOSE
DNF Sheryl Loan   Eagle River, AKDNF 21402  38 RTR

Women - EX - Junior - 1-18

 Place NameCity, StateTime USAC #BibTeam
1 Kayla Martin   Boulder, CO1:21:05.81 203017  892 Y RIDERS
2 Chloe Forsman   Tucson, AZ1:21:10.53 214920  1062 Y-RIDERS
3 Sabina Kraushaar   Durango, CO1:24:05.31 198738  702 DURANGO WH
4 Chantel Shoemaker   Durango, CO1:25:44.94 170692  508 RITCHEY NO
5 Danae York   Boulder, CO1:26:56.84 178290  591 VELOBUM.CO
6 Deidre York   Boulder, CO1:31:31.93 178289  592 VELOBUM.CO
7 Rachel Throop   Costa Mesa, CA1:36:36.77 174132  580 RITCHEY NO
8 Sara Connolly   Bend, OR1:44:15.64 211448  616 HUTCHS BIC

Women - EX - Senior - 19-24

 Place NameCity, StateTime USAC #BibTeam
1 THERESA MATTINGLY   1:16:35.24  891 
2 Kathleen Weber   Austin, TX1:23:08.81 144579  748 TEAM ORTHO
3 Blair Rajamaki   Park City, UT1:30:18.57 191737  511 X MEN
4 Onawa Pelham   Durango, CO1:37:14.51 207459  971 WINDHAM MT

Women - EX - Senior - 25-29

 Place NameCity, StateTime USAC #BibTeam
1 Kristina Andrus   Evergreen, CO1:18:54.22 152326  745 SANTA CRUZ
2 CORRIE ELDRED   1:19:52.14  909 
3 Polly Simpich   Winter Park, CO1:22:35.67 213489  977 TOTALLY WI
4 Mary Carlson   Spokane, WA1:28:54.66 181834  638 MTBCHICK/C
5 Jessica Nelson   Longmont, CO1:56:28.10 199823  685 MTBCHICK.C

Women - EX - Master - 30-34

 Place NameCity, StateTime USAC #BibTeam
1 Christie Johnson   Park City1:25:52.16 201583  489 TEAM SUGAR
2 Amy Bowen   Santa Cruz, CA1:30:39.33 194774  497 AMGEN
3 Kim Heiser   Auburn, CA1:32:00.69 206432  974 VELO BELLA
4 Melenie Long   Boulder, CO1:35:46.05 215408  903 ADVENTURE
5 Becky Rockwell   Durango, CO1:37:03.41 152313  1005 

Women - EX - Master - 35-39

 Place NameCity, StateTime USAC #BibTeam
1 Trudi Franzel   Richmond Hill, GA1:17:00.48 201599  442 TITUS CYCL
2 Stacey Scanlan   Boise, ID1:18:11.75 199731  551 TAMARACK/G
3 Nicole Hanson   Arvada, CO1:21:13.81 211486  1082 VELO BELLA
4 Beverley Harper   Woodside, CA1:22:18.52 15132  968 LGBRC
5 Jody Bradbury   Bend, OR1:23:30.80 207207  457 TAI CYCLIN
6 Pamela Hanlon   Park City, UT1:29:00.39 173451  750 JANS
7 Lisa Barnard   Phoenix, AZ1:39:20.39 195511  739 TITUS CYCL

Women - EX - Master - 40-44

 Place NameCity, StateTime USAC #BibTeam
1 Linda Holzinger   Castle Rock, CO1:27:19.20 213491  895 
2 Kathryn Judson   Arvada, CO1:30:03.87 47161  764 GOLDEN BEA
3 Cindy McLean   Durango, CO1:34:21.92 157547  693 

Women - EX - Master - 50-54

 Place NameCity, StateTime USAC #BibTeam
1 Deborah Wille   Flagstaff, AZ1:49:43.93 196287  482 ABSOLUTE B

Women - EX - Master - 55-99

 Place NameCity, StateTime USAC #BibTeam
1 Martha Iverson   Durango, CO1:31:02.30 80010  438 
DNF CAROL NEWSOME   DNF  544 KING OF TH

Women - SP - Junior - 1-18

 Place NameCity, StateTime USAC #BibTeam
1 Essence Barton   Thousand Oak, CA1:30:25.72 179924  793 GIANT/DIRT
2 Kathryn McLean   Durango, CO1:33:16.62 200488  695 
3 Amber Throop   Escondido, CA1:33:17.46 181129  579 RITCHEY NO
4 MAGGIE CASEY   1:39:24.55  777 DURANGO CY
5 Jill Behlen   Boulder, CO1:49:20.09 210228  736 Y RIDERS

Women - SP - Senior - 19-29

 Place NameCity, StateTime USAC #BibTeam
1 Deanna Weber   Fort Worth, TX1:33:17.11 202645  747 PEDAL MASH
2 Liz Zumbrunnen   Salt Lake City, UT1:33:19.18 199878  503 REVOLUTION
3 ANGELA HOUGHTON   1:47:51.45  709 

Women - SP - Master - 30-39

 Place NameCity, StateTime USAC #BibTeam
1 LaDawn Stevenson   Breckenridge, CO1:26:38.61 199917  1122 TOKYO JOES
2 COLLEEN CRAIG   1:38:30.74  1109 
3 Sophia Lane   Fullerton, CA1:49:57.93 183998  1070 THE ANTMAN
4 KRISTIN ALDRICH   1:52:00.10  744 

Women - SP - Master - 40-99

 Place NameCity, StateTime USAC #BibTeam
1 MARY TESITOR   1:32:07.71  577 
2 KIM PETTIJOHN   2:29:29.29  612 

Women - BG - Junior - 1-10

 Place NameCity, StateTime USAC #BibTeam
1 Rachel Mydock   Glendale, AZ0:39:46.96 206453  425 RITCHEYNOV
2 Celeste Garcia   Phoenix, AZ0:43:37.39 207771  621 GEARWERKS

Women - BG - Junior - 11-12

 Place NameCity, StateTime USAC #BibTeam
1 ALICIA ROSE PASTORE   0:25:14.57  1032 
2 Kara Uhl   Smithville, TX0:27:55.10 185730  759 RITCHEY NO
3 Aubrey Garcia   Phoenix, AZ0:35:07.34 187105  622 GEARWERKS

Women - BG - Junior - 13-14

 Place NameCity, StateTime USAC #BibTeam
1 Jessica Maier   Glendale, AZ0:37:16.48 196736  517 RITCHEY NO

Women - BG - Senior - 19-29

 Place NameCity, StateTime USAC #BibTeam
1 GABRIELA WILLIAMS   0:36:17.14  1113 
DNF Traci Baker   Canyon Country, CADNF 213536  1112 

Women - BG - Master - 30-99

 Place NameCity, StateTime USAC #BibTeam
1 NANCY DONNELAAN   0:34:10.14  449 ADVENTURE
2 Lori Fabris   Los Gatos, CA0:38:04.62 216209  724 
3 Lana Suffia   Bakersfield, CA0:39:51.05 197378  967 
DNF Cindy Mydock   Glendale, AZDNF 106946  426 TEAM EXCEL

Report missing or incorrect license numbers

Volkswagen
Bonk BreakerOSMOShimanoSierra NevadaCUOREUSACDFSpy
UCI USA Cycling is the official governing body for all disciplines of competitive cycling in the United States. The 501c3, membership-based organization aims both to achieve sustained success in international cycling competition and to grow competitive cycling in America while delivering an exceptional customer experience.
View Children's Online Privacy Protection Policy
US Olympic Committee